GLOBALSTAR M001 1 25162U 98008A 21017.88430861 .00000012 00000-0 83010-3 0 9998 2 25162 52.0055 342.6197 0001648 100.3379 285.5486 12.38127371 44224 GLOBALSTAR M004 1 25163U 98008B 21017.48374428 -.00000078 00000-0 14596-3 0 9997 2 25163 52.0002 290.5877 0003206 330.2375 200.2949 12.63295626 57976 GLOBALSTAR M002 1 25164U 98008C 21017.54366042 -.00000053 00000-0 45626-3 0 9999 2 25164 52.0036 320.9959 0001720 66.6902 293.4099 11.61477618996868 GLOBALSTAR M003 1 25165U 98008D 21017.59975900 -.00000146 00000-0 -60683-3 0 9998 2 25165 51.9818 313.1399 0007239 287.8632 244.5427 12.11946700 37817 GLOBALSTAR M014 1 25306U 98023A 21017.44070381 -.00000050 00000-0 51847-3 0 9990 2 25306 51.9836 278.3361 0000406 341.7057 189.3138 11.65437535 3317 GLOBALSTAR M006 1 25307U 98023B 21017.86611203 -.00000055 00000-0 42749-3 0 9997 2 25307 51.9926 269.5218 0004680 81.5682 356.6034 11.58127488 30243 GLOBALSTAR M015 1 25308U 98023C 21017.54725803 -.00000147 00000-0 -16683-2 0 9995 2 25308 51.9829 295.0124 0013266 89.1991 82.3422 11.48845623 8845 GLOBALSTAR M008 1 25309U 98023D 21017.56183775 -.00000114 00000-0 -14038-3 0 9991 2 25309 51.9939 190.1737 0003210 41.7938 0.4227 12.35989321 38709 GLOBALSTAR M023 1 25621U 99004A 21017.77221194 -.00000226 00000-0 -68312-3 0 9997 2 25621 52.0112 279.6106 0009396 162.2226 237.0951 12.62388578 12299 GLOBALSTAR M040 1 25622U 99004B 21017.47316801 -.00000117 00000-0 -73385-4 0 9991 2 25622 51.9923 282.3388 0001341 58.9386 112.2933 12.61902853 11897 GLOBALSTAR M036 1 25623U 99004C 21017.63922666 -.00000085 00000-0 -35074-4 0 9999 2 25623 51.9944 167.7579 0010625 199.1883 241.5434 11.86574889987663 GLOBALSTAR M038 1 25624U 99004D 21017.76489671 -.00000098 00000-0 -24616-4 0 9992 2 25624 51.9992 31.8803 0001495 277.7755 253.3141 12.32450089 3633 GLOBALSTAR M022 1 25649U 99012A 21017.30945237 -.00000087 00000-0 -42108-5 0 9998 2 25649 52.0066 352.4530 0002194 227.4477 274.7678 12.02443531982474 GLOBALSTAR M041 1 25650U 99012B 21017.76943874 -.00000102 00000-0 -21820-3 0 9999 2 25650 51.9992 183.5101 0003704 58.1165 302.0031 11.96614024985616 GLOBALSTAR M046 1 25651U 99012C 21017.45657337 -.00000003 00000-0 95007-3 0 9999 2 25651 52.0081 0.9917 0002005 272.1235 259.4629 12.09348538988816 GLOBALSTAR M037 1 25652U 99012D 21017.54842436 -.00000167 00000-0 -35136-3 0 9995 2 25652 52.0021 51.5248 0002040 207.8960 310.3809 12.62335132 7789 GLOBALSTAR M045 1 25676U 99019A 21017.56305903 -.00000092 00000-0 14059-4 0 9991 2 25676 51.9940 218.3244 0001624 101.1773 289.9153 12.26980160995749 GLOBALSTAR M019 1 25677U 99019B 21017.60258876 -.00000168 00000-0 -81694-3 0 9996 2 25677 51.9849 235.3097 0000825 4.5773 24.7344 12.13818231989566 GLOBALSTAR M044 1 25678U 99019C 21017.62547712 -.00000043 00000-0 56077-3 0 9997 2 25678 51.9992 345.0150 0006071 171.8990 358.8975 11.90196559979413 GLOBALSTAR M042 1 25679U 99019D 21017.45946743 -.00000074 00000-0 17040-3 0 9997 2 25679 52.0015 280.5764 0001977 216.3013 314.9649 12.22021248988247 GLOBALSTAR M025 1 25770U 99031A 21017.50616373 -.00000046 00000-0 66846-3 0 9999 2 25770 51.9825 292.7545 0001403 348.7999 181.8149 11.22533101300716 GLOBALSTAR M049 1 25771U 99031B 21017.56411966 -.00000115 00000-0 -17196-2 0 9998 2 25771 51.9845 246.3727 0001884 199.9541 160.1182 11.12087829938116 GLOBALSTAR M047 1 25772U 99031C 21017.51393833 -.00000069 00000-0 62282-5 0 9992 2 25772 51.9856 37.4377 0016137 15.9911 344.1402 11.31901324288601 GLOBALSTAR M052 1 25773U 99031D 21017.51994310 -.00000105 00000-0 -13001-2 0 9994 2 25773 51.9894 17.8283 0002479 21.8257 153.0350 11.15034200298720 GLOBALSTAR M035 1 25851U 99037A 21017.52567084 -.00000085 00000-0 -81529-3 0 9990 2 25851 51.9973 49.0285 0013695 248.9516 266.2360 11.04515624918163 GLOBALSTAR M032 1 25852U 99037B 21017.56209724 -.00000067 00000-0 26384-5 0 9998 2 25852 51.9982 345.3502 0004454 351.3617 8.7106 11.19041203954353 GLOBALSTAR M051 1 25853U 99037C 21017.83632368 -.00000055 00000-0 42331-3 0 9998 2 25853 51.9819 327.9598 0000914 274.5557 85.5150 11.42177228948280 GLOBALSTAR M030 1 25854U 99037D 21017.86451435 -.00000073 00000-0 38221-4 0 9990 2 25854 51.9848 236.4159 0004151 36.0629 324.0467 11.55067749963940 GLOBALSTAR M048 1 25872U 99041A 21017.57122212 -.00000086 00000-0 -43351-3 0 9995 2 25872 51.9331 201.2971 0011948 274.4823 126.3117 11.33824948942305 GLOBALSTAR M026 1 25873U 99041B 21017.61991115 -.00000062 00000-0 73356-4 0 9999 2 25873 51.9970 183.7019 0002165 103.3798 335.1394 11.06788928970152 GLOBALSTAR M043 1 25874U 99041C 21017.56563590 -.00000069 00000-0 -28301-4 0 9994 2 25874 51.9374 244.7551 0013271 81.8337 291.5118 11.25659061941387 GLOBALSTAR M028 1 25875U 99041D 21017.50288008 -.00000130 00000-0 -19569-3 0 9991 2 25875 51.9644 318.4260 0063183 171.8222 188.3683 12.50507207988524 GLOBALSTAR M024 1 25883U 99043A 21017.48745623 .00000009 00000-0 26082-2 0 9990 2 25883 52.0035 57.0841 0000955 346.5587 156.0498 11.10143747935879 GLOBALSTAR M027 1 25884U 99043B 21017.55019651 -.00000016 00000-0 18144-2 0 9993 2 25884 52.0226 89.3171 0021203 266.0047 93.8322 11.04359146963175 GLOBALSTAR M054 1 25885U 99043C 21017.73424861 -.00000063 00000-0 22060-3 0 9992 2 25885 52.0139 126.5437 0003606 242.2752 271.2493 11.39189645935728 GLOBALSTAR M053 1 25886U 99043D 21017.29885500 -.00000063 00000-0 15079-3 0 9997 2 25886 52.0013 345.2899 0002974 222.8353 281.4943 11.27640439937679 GLOBALSTAR M058 1 25907U 99049A 21017.51622614 -.00000043 00000-0 55129-3 0 9995 2 25907 51.9949 92.4656 0001931 47.5035 312.5963 11.93132653349157 GLOBALSTAR M050 1 25908U 99049B 21017.57679560 -.00000162 00000-0 -83694-3 0 9995 2 25908 51.9958 220.3802 0010147 62.1940 314.0768 12.07392673953528 GLOBALSTAR M033 1 25909U 99049C 21017.56880686 -.00000071 00000-0 19945-3 0 9994 2 25909 51.9881 203.5195 0012098 211.1017 148.9115 12.20213319338992 GLOBALSTAR M055 1 25910U 99049D 21017.57855394 -.00000071 00000-0 20143-3 0 9997 2 25910 52.0026 292.6502 0007600 25.5878 334.5348 12.29356547970075 GLOBALSTAR M057 1 25943U 99058A 21017.56765533 -.00000081 00000-0 10823-3 0 9992 2 25943 51.9968 241.5418 0001700 313.4636 46.6072 12.24738988969452 GLOBALSTAR M059 1 25944U 99058B 21017.58173321 -.00000035 00000-0 63383-3 0 9991 2 25944 51.9996 246.8669 0001731 44.5965 331.5740 11.99934226380573 GLOBALSTAR M056 1 25945U 99058C 21017.55455939 -.00000109 00000-0 -25191-3 0 9995 2 25945 51.9972 290.2860 0000390 176.2593 241.4458 12.04734494968371 GLOBALSTAR M031 1 25946U 99058D 21017.80834759 -.00000161 00000-0 -71832-3 0 9996 2 25946 51.9963 278.2527 0001642 119.5187 282.2210 12.15966346968754 GLOBALSTAR M039 1 25961U 99062A 21017.60935127 -.00000095 00000-0 47922-4 0 9996 2 25961 51.9840 136.7069 0002995 42.7592 317.3508 12.62224147976682 GLOBALSTAR M034 1 25962U 99062B 21017.85606744 -.00000071 00000-0 15263-3 0 9990 2 25962 51.9851 239.6740 0013268 235.4598 210.5379 11.79398090948254 GLOBALSTAR M029 1 25963U 99062C 21017.49117559 -.00000098 00000-0 -15140-3 0 9996 2 25963 51.9800 136.5021 0003064 170.0342 266.9265 11.99848079975641 GLOBALSTAR M061 1 25964U 99062D 21017.53783627 -.00000057 00000-0 38091-3 0 9991 2 25964 51.9812 43.1915 0006296 174.9133 346.5710 11.76733166931581 GLOBALSTAR M063 1 26081U 00008A 21017.52982411 -.00000062 00000-0 30747-3 0 9991 2 26081 51.9971 35.8829 0004861 110.8681 26.2763 11.86124372966327 GLOBALSTAR M062 1 26082U 00008B 21017.62019572 -.00000078 00000-0 14360-3 0 9992 2 26082 51.9831 154.4217 0005708 265.7405 107.0817 12.43372137296341 GLOBALSTAR M060 1 26083U 00008C 21017.87541390 -.00000075 00000-0 16236-3 0 9999 2 26083 51.9998 245.8081 0004569 88.8753 284.0680 12.17586844956243 GLOBALSTAR M064 1 26084U 00008D 21017.59176638 -.00000118 00000-0 -49854-3 0 9999 2 26084 52.0018 153.5557 0001667 165.8071 194.2808 11.88487623975581 GLOBALSTAR M065 1 31571U 07020A 21017.48387741 -.00000071 00000-0 18181-3 0 9990 2 31571 51.9918 92.7632 0001670 159.0572 214.6187 12.62270675630112 GLOBALSTAR M069 1 31573U 07020C 21017.52802571 -.00000092 00000-0 64976-4 0 9997 2 31573 51.9966 48.7769 0001231 188.5600 326.4744 12.62266066631033 GLOBALSTAR M072 1 31574U 07020D 21017.84438219 -.00000122 00000-0 -10137-3 0 9991 2 31574 52.0080 142.6301 0002205 105.9158 67.3886 12.62270054629488 GLOBALSTAR M071 1 31576U 07020F 21017.55545681 -.00000099 00000-0 28497-4 0 9994 2 31576 52.0080 52.8852 0001821 170.9397 348.1165 12.62267787292321 GLOBALSTAR M067 1 32263U 07048A 21017.63337021 -.00000081 00000-0 11928-3 0 9995 2 32263 51.9740 71.0800 0001526 143.6881 22.8098 12.40598321609611 GLOBALSTAR M070 1 32264U 07048B 21017.70304050 -.00000101 00000-0 13792-4 0 9995 2 32264 51.9770 357.3997 0001010 238.2171 293.3929 12.62263981611136 GLOBALSTAR M066 1 32265U 07048C 21017.88173014 -.00000113 00000-0 -51493-4 0 9993 2 32265 51.9649 219.4132 0001799 47.1056 56.9193 12.62265192613385 GLOBALSTAR M068 1 32266U 07048D 21017.60078487 -.00000097 00000-0 37575-4 0 9997 2 32266 51.9864 174.3485 0001763 124.5715 313.7866 12.62722673614179 GLOBALSTAR M079 1 37188U 10054A 21017.72739953 -.00000098 00000-0 30025-4 0 9995 2 37188 52.0058 5.3373 0000171 24.6252 146.8987 12.62264826473624 GLOBALSTAR M074 1 37189U 10054B 21017.43487752 -.00000108 00000-0 -23543-4 0 9991 2 37189 52.0034 5.8010 0000129 2.4839 159.2852 12.62268483473554 GLOBALSTAR M076 1 37190U 10054C 21017.70065912 -.00000113 00000-0 -49221-4 0 9990 2 37190 52.0052 5.0134 0000618 36.5466 134.0920 12.62265005473624 GLOBALSTAR M077 1 37191U 10054D 21017.60873549 -.00000084 00000-0 11308-3 0 9993 2 37191 52.0091 321.6894 0000549 45.0916 127.1525 12.62266585473804 GLOBALSTAR M075 1 37192U 10054E 21017.55347458 -.00000100 00000-0 22677-4 0 9994 2 37192 51.9961 48.6112 0000233 108.9167 52.7218 12.62263985472605 GLOBALSTAR M073 1 37193U 10054F 21017.84172135 -.00000082 00000-0 12198-3 0 9990 2 37193 52.0076 320.3343 0000566 49.6496 341.1682 12.62265420474390 GLOBALSTAR M083 1 37739U 11033A 21017.86466362 -.00000095 00000-0 49810-4 0 9990 2 37739 51.9853 271.1949 0000511 65.3728 11.3672 12.62267151443726 GLOBALSTAR M088 1 37740U 11033B 21017.85380233 -.00000116 00000-0 -67223-4 0 9996 2 37740 51.9710 178.0724 0000834 85.2224 62.2095 12.62263676439194 GLOBALSTAR M091 1 37741U 11033C 21017.53547476 -.00000107 00000-0 -15557-4 0 9999 2 37741 51.9991 139.7110 0000833 109.0977 330.3147 12.62265296439803 GLOBALSTAR M085 1 37742U 11033D 21017.70286478 -.00000097 00000-0 40242-4 0 9997 2 37742 51.9875 91.6669 0000634 132.6976 48.1373 12.62264447440679 GLOBALSTAR M081 1 37743U 11033E 21017.64427434 -.00000085 00000-0 10216-3 0 9994 2 37743 51.9966 93.6400 0000502 110.6116 42.4589 12.62268492440706 GLOBALSTAR M089 1 37744U 11033F 21017.43163513 -.00000093 00000-0 61913-4 0 9997 2 37744 51.9945 48.8183 0000640 113.5042 333.4478 12.62268185441257 GLOBALSTAR M084 1 38040U 11080A 21017.46311597 -.00000090 00000-0 77936-4 0 9998 2 38040 52.0005 275.1636 0001037 63.0148 107.6760 12.62263114419348 GLOBALSTAR M080 1 38041U 11080B 21017.63846536 -.00000082 00000-0 11977-3 0 9997 2 38041 52.0057 275.6719 0001108 60.8066 305.7810 12.62268017419351 GLOBALSTAR M082 1 38042U 11080C 21017.89036257 -.00000109 00000-0 -31889-4 0 9993 2 38042 52.0050 230.1789 0000663 81.9342 290.9834 12.62264523420186 GLOBALSTAR M092 1 38043U 11080D 21017.86926809 -.00000104 00000-0 -14440-5 0 9992 2 38043 52.0104 320.5291 0000696 82.9751 313.8496 12.62269394418671 GLOBALSTAR M090 1 38044U 11080E 21017.60498067 -.00000111 00000-0 -42976-4 0 9997 2 38044 51.9859 226.9347 0000897 72.1768 322.8845 12.62266014420093 GLOBALSTAR M086 1 38045U 11080F 21017.86423080 -.00000107 00000-0 -20071-4 0 9996 2 38045 51.9870 226.5714 0001872 36.9255 336.6893 12.62265204420179 GLOBALSTAR M097 1 39072U 13005A 21017.57122593 -.00000104 00000-0 -92513-6 0 9998 2 39072 52.0039 140.3649 0000743 80.5086 279.5865 12.62266948367363 GLOBALSTAR M093 1 39073U 13005B 21017.70269228 -.00000105 00000-0 -61541-5 0 9998 2 39073 51.9805 135.8474 0000464 103.0784 257.0135 12.62266240367371 GLOBALSTAR M094 1 39074U 13005C 21017.78218538 -.00000104 00000-0 13452-5 0 9991 2 39074 51.9975 48.3807 0000218 131.7284 228.3602 12.62266557368897 GLOBALSTAR M096 1 39075U 13005D 21017.55773379 -.00000094 00000-0 53547-4 0 9992 2 39075 52.0080 96.3166 0000462 122.7471 237.3440 12.62267099368114 GLOBALSTAR M078 1 39076U 13005E 21017.61052516 -.00000116 00000-0 -67513-4 0 9997 2 39076 51.9848 182.8573 0000903 147.7698 212.3224 12.62266564366607 GLOBALSTAR M095 1 39077U 13005F 21017.79501768 -.00000112 00000-0 -46672-4 0 9994 2 39077 51.9775 180.2930 0000664 123.1874 236.9056 12.62265353366637